• In Russia
  • List of Countries
  • For 7 days
  • Water Temperature
  • Satellite Maps
  • Weather Map
  • Weather Widgets
  • user-avatar
    Login

    Hourly Weather Canberra

    Today, 23 January, Monday

    Time Temperature Precipitation Wind Pressure Humidity
    00:00 +15°C° 0 mm 1 mps 707 mmHg 86%
    01:00 +15°C° 0 mm 1 mps 707 mmHg 89%
    02:00 +14°C° 0 mm 1 mps 707 mmHg 90%
    03:00 +14°C° 0 mm 1 mps 706 mmHg 91%
    04:00 +14°C° 0 mm 1 mps 706 mmHg 95%
    05:00 +18°C° 0 mm 1 mps 707 mmHg 86%
    06:00 +20°C° 0 mm 1 mps 707 mmHg 77%
    07:00 +23°C° 0 mm 1 mps 708 mmHg 67%
    08:00 +26°C° 0 mm 2 mps 708 mmHg 58%
    09:00 +29°C° 0 mm 3 mps 708 mmHg 49%
    10:00 +33°C° 0 mm 3 mps 708 mmHg 43%
    11:00 +34°C° 0 mm 4 mps 707 mmHg 39%
    12:00 +35°C° 0 mm 4 mps 707 mmHg 36%
    13:00 +36°C° 0 mm 4 mps 706 mmHg 33%
    14:00 +36°C° 0 mm 4 mps 706 mmHg 35%
    15:00 +35°C° 0 mm 4 mps 706 mmHg 38%
    16:00 +34°C° 0 mm 3 mps 705 mmHg 40%
    17:00 +33°C° 0.2 mm 3 mps 705 mmHg 46%
    18:00 +30°C° 0.2 mm 2 mps 705 mmHg 53%
    19:00 +29°C° 0.2 mm 2 mps 705 mmHg 59%
    20:00 +28°C° 0.3 mm 2 mps 704 mmHg 64%
    21:00 +27°C° 0.3 mm 2 mps 704 mmHg 70%
    22:00 +26°C° 0 mm 2 mps 705 mmHg 75%
    23:00 +26°C° 0.1 mm 2 mps 704 mmHg 74%

    Tomorrow, 24 January, Tuesday

    Time Temperature Precipitation Wind Pressure Humidity
    00:00 +26°C° 0.1 mm 3 mps 704 mmHg 73%
    01:00 +26°C° 0.1 mm 3 mps 704 mmHg 71%
    02:00 +26°C° 0 mm 4 mps 703 mmHg 72%
    03:00 +26°C° 0 mm 4 mps 703 mmHg 73%
    04:00 +26°C° 0 mm 4 mps 703 mmHg 74%
    05:00 +27°C° 0 mm 5 mps 704 mmHg 72%
    06:00 +27°C° 0 mm 5 mps 704 mmHg 71%
    07:00 +28°C° 0 mm 6 mps 705 mmHg 69%
    08:00 +29°C° 0 mm 6 mps 705 mmHg 61%
    09:00 +32°C° 0 mm 6 mps 706 mmHg 52%
    10:00 +33°C° 0 mm 6 mps 706 mmHg 43%
    11:00 +34°C° 0 mm 6 mps 706 mmHg 42%
    12:00 +34°C° 0 mm 5 mps 707 mmHg 41%
    13:00 +35°C° 0 mm 5 mps 707 mmHg 40%
    14:00 +34°C° 0.1 mm 5 mps 707 mmHg 40%
    15:00 +34°C° 0.1 mm 4 mps 708 mmHg 40%
    16:00 +33°C° 0.1 mm 4 mps 708 mmHg 40%
    17:00 +30°C° 0 mm 3 mps 709 mmHg 48%
    18:00 +27°C° 0 mm 3 mps 709 mmHg 56%
    19:00 +25°C° 0 mm 2 mps 710 mmHg 64%
    20:00 +22°C° 0 mm 3 mps 710 mmHg 70%
    21:00 +20°C° 0 mm 3 mps 710 mmHg 75%
    22:00 +18°C° 0 mm 3 mps 711 mmHg 80%
    23:00 +18°C° 0 mm 3 mps 711 mmHg 80%

    Day after tomorrow, 25 January, Wednesday

    Time Temperature Precipitation Wind Pressure Humidity
    00:00 +17°C° 0 mm 3 mps 711 mmHg 80%
    01:00 +17°C° 0 mm 3 mps 711 mmHg 80%
    02:00 +17°C° 0 mm 3 mps 711 mmHg 80%
    03:00 +16°C° 0 mm 2 mps 711 mmHg 80%
    04:00 +16°C° 0 mm 2 mps 711 mmHg 80%
    05:00 +16°C° 0 mm 2 mps 711 mmHg 79%
    06:00 +16°C° 0 mm 2 mps 711 mmHg 77%
    07:00 +17°C° 0 mm 2 mps 712 mmHg 75%
    08:00 +19°C° 0 mm 2 mps 712 mmHg 68%
    09:00 +21°C° 0 mm 2 mps 712 mmHg 61%
    10:00 +24°C° 0 mm 2 mps 712 mmHg 54%
    11:00 +27°C° 0 mm 2 mps 712 mmHg 49%
    12:00 +29°C° 0 mm 2 mps 711 mmHg 44%
    13:00 +31°C° 0 mm 2 mps 711 mmHg 40%
    14:00 +31°C° 0 mm 2 mps 711 mmHg 40%
    15:00 +30°C° 0 mm 2 mps 710 mmHg 41%
    16:00 +30°C° 0 mm 2 mps 709 mmHg 41%
    17:00 +28°C° 0 mm 2 mps 709 mmHg 48%
    18:00 +27°C° 0 mm 2 mps 709 mmHg 55%
    19:00 +25°C° 0 mm 2 mps 709 mmHg 62%
    20:00 +23°C° 0 mm 1 mps 709 mmHg 68%
    21:00 +22°C° 0 mm 1 mps 709 mmHg 75%
    22:00 +20°C° 0 mm 1 mps 709 mmHg 82%
    23:00 +20°C° 0 mm 1 mps 709 mmHg 84%

    26 January, Thursday

    Time Temperature Precipitation Wind Pressure Humidity
    00:00 +19°C° 0 mm 1 mps 709 mmHg 87%
    01:00 +19°C° 0 mm 1 mps 708 mmHg 90%
    02:00 +18°C° 0 mm 1 mps 708 mmHg 91%
    03:00 +18°C° 0 mm 1 mps 708 mmHg 93%
    04:00 +16°C° 0 mm 1 mps 708 mmHg 95%
    05:00 +19°C° 0 mm 1 mps 708 mmHg 89%
    06:00 +20°C° 0 mm 1 mps 709 mmHg 83%
    07:00 +21°C° 0 mm 1 mps 709 mmHg 78%
    08:00 +24°C° 0 mm 1 mps 710 mmHg 65%
    09:00 +27°C° 0 mm 1 mps 710 mmHg 52%
    10:00 +30°C° 0 mm 1 mps 710 mmHg 39%
    11:00 +32°C° 0 mm 1 mps 710 mmHg 35%
    12:00 +33°C° 0 mm 1 mps 710 mmHg 31%
    13:00 +35°C° 0 mm 2 mps 709 mmHg 28%
    14:00 +34°C° 0 mm 2 mps 709 mmHg 31%
    15:00 +33°C° 0 mm 3 mps 709 mmHg 34%
    16:00 +33°C° 0 mm 3 mps 709 mmHg 37%
    17:00 +28°C° 0 mm 3 mps 709 mmHg 51%
    18:00 +25°C° 0 mm 3 mps 709 mmHg 65%
    19:00 +21°C° 0 mm 3 mps 709 mmHg 79%
    20:00 +20°C° 0 mm 3 mps 709 mmHg 81%
    21:00 +19°C° 0 mm 3 mps 710 mmHg 83%
    22:00 +19°C° 0 mm 2 mps 711 mmHg 85%
    23:00 +19°C° 0 mm 2 mps 710 mmHg 86%

    27 January, Friday

    Time Temperature Precipitation Wind Pressure Humidity
    00:00 +18°C° 0 mm 2 mps 710 mmHg 87%
    01:00 +18°C° 0 mm 2 mps 709 mmHg 88%
    02:00 +17°C° 0 mm 2 mps 709 mmHg 90%
    03:00 +18°C° 0 mm 1 mps 709 mmHg 91%
    04:00 +16°C° 0 mm 1 mps 709 mmHg 92%
    05:00 +18°C° 0 mm 1 mps 709 mmHg 89%
    06:00 +19°C° 0 mm 1 mps 709 mmHg 87%
    07:00 +19°C° 0 mm 1 mps 710 mmHg 84%
    08:00 +22°C° 0 mm 1 mps 710 mmHg 73%
    09:00 +25°C° 0 mm 1 mps 710 mmHg 62%
    10:00 +27°C° 0 mm 1 mps 710 mmHg 51%
    11:00 +29°C° 0 mm 2 mps 710 mmHg 44%
    12:00 +31°C° 0 mm 2 mps 710 mmHg 36%
    13:00 +35°C° 0 mm 2 mps 709 mmHg 29%
    14:00 +35°C° 0 mm 2 mps 709 mmHg 28%
    15:00 +35°C° 0 mm 2 mps 708 mmHg 27%
    16:00 +35°C° 0 mm 2 mps 708 mmHg 26%
    17:00 +31°C° 0 mm 2 mps 707 mmHg 36%
    18:00 +28°C° 0 mm 2 mps 707 mmHg 45%
    19:00 +26°C° 0 mm 2 mps 707 mmHg 55%
    20:00 +24°C° 0 mm 1 mps 707 mmHg 64%
    21:00 +23°C° 0 mm 1 mps 707 mmHg 73%
    22:00 +21°C° 0 mm 1 mps 707 mmHg 83%
    23:00 +21°C° 0 mm 1 mps 707 mmHg 87%

    28 January, Saturday

    Time Temperature Precipitation Wind Pressure Humidity
    00:00 +20°C° 0 mm 1 mps 706 mmHg 91%
    01:00 +17°C° 0 mm 0 mps 706 mmHg 94%
    02:00 +19°C° 0 mm 1 mps 706 mmHg 95%
    03:00 +18°C° 0 mm 1 mps 706 mmHg 96%
    04:00 +18°C° 0 mm 1 mps 706 mmHg 97%
    05:00 +20°C° 0 mm 1 mps 707 mmHg 89%
    06:00 +22°C° 0 mm 1 mps 707 mmHg 81%
    07:00 +24°C° 0 mm 1 mps 708 mmHg 73%
    08:00 +27°C° 0 mm 3 mps 708 mmHg 59%
    09:00 +30°C° 0 mm 4 mps 708 mmHg 44%
    10:00 +34°C° 0 mm 5 mps 709 mmHg 30%
    11:00 +35°C° 0 mm 5 mps 708 mmHg 25%
    12:00 +36°C° 0 mm 5 mps 708 mmHg 21%
    13:00 +37°C° 0 mm 5 mps 708 mmHg 16%
    14:00 +37°C° 0 mm 4 mps 707 mmHg 15%
    15:00 +37°C° 0 mm 4 mps 707 mmHg 13%
    16:00 +37°C° 0 mm 3 mps 707 mmHg 12%
    17:00 +34°C° 0 mm 3 mps 708 mmHg 21%
    18:00 +29°C° 0 mm 3 mps 708 mmHg 31%
    19:00 +26°C° 0 mm 2 mps 708 mmHg 40%
    20:00 +24°C° 0 mm 3 mps 709 mmHg 51%
    21:00 +21°C° 0 mm 3 mps 709 mmHg 62%
    22:00 +20°C° 0 mm 3 mps 710 mmHg 72%
    23:00 +19°C° 0 mm 3 mps 710 mmHg 75%
    Show more